• Join FlightAware (Why Join?)
  • Login
  • US Flag GB Flag 
01:46 EDT


 

Airport Tracker/Info


-or-


 

Live Flight TrackerFlight Track Log ✈ DAL268 ✈ 16-May-2013 ✈ KATL - KJFK

Flight Track Log - Related Links

Times and Time Zones

All times are in EDT time to prevent confusion due to time zone crossing. See the DAL268 flight status page for this flight to view local times or setup timezone preferences in your user account.

Time Position Orientation Groundspeed Altitude Reporting Facility
EDT Latitude Longitude Course Direction KTS MPH feet Rate Location/Type
18:33 33.6286 -84.5003 64° Northeast 442 509 2,600  Level Atlanta Center
18:34 33.5833 -84.5667 231° Southwest 261 300 4,700 2,520 Climbing Atlanta TRACON
18:35 33.5167 -84.5833 192° South 265 305 7,600 2,580 Climbing Atlanta TRACON
18:36 33.4500 -84.5500 157° South 301 346 9,900 1,500 Climbing Atlanta TRACON
18:38 33.4558 -84.3228 88° East 354 407 12,300 1,500 Climbing Atlanta Center
18:39 33.6677 -83.5901 64° Northeast  Level FlightAware Approximate
18:39 33.4894 -84.1908 73° East 407 468 14,600  Level Atlanta Center
18:40 33.5439 -84.0661 62° Northeast 415 478 16,800 1,920 Climbing Atlanta Center
18:41 33.5981 -83.9367 63° Northeast 423 487 18,500 1,560 Climbing Atlanta Center
18:42 33.6311 -83.7919 75° East 442 509 20,000 1,500 Climbing Atlanta Center
18:43 33.6642 -83.6419 75° East 456 525 21,500 1,500 Climbing Atlanta Center
18:44 33.7200 -83.4944 65° Northeast 467 537 23,000 1,260 Climbing Atlanta Center
18:45 33.7778 -83.3542 64° Northeast 475 547 24,100 1,140 Climbing Atlanta Center
18:46 33.8372 -83.2036 65° Northeast 480 552 25,300 1,140 Climbing Atlanta Center
18:47 33.9008 -83.0403 65° Northeast 488 562 26,400 900 Climbing Atlanta Center
18:48 33.9619 -82.8867 64° Northeast 488 562 27,200 600 Climbing Atlanta Center
18:49 34.0253 -82.7356 63° Northeast 495 570 27,600 1,140 Climbing Atlanta Center
18:50 34.0842 -82.5842 65° Northeast 495 570 29,500 1,200 Climbing Atlanta Center
18:51 34.1367 -82.4525 64° Northeast 487 560 30,000 720 Climbing Atlanta Center
18:52 34.1953 -82.3033 65° Northeast 487 560 31,000 480 Climbing Atlanta Center
18:53 34.2514 -82.1564 65° Northeast 487 560 31,000  Level Atlanta Center
18:54 34.3203 -82.0142 60° Northeast 487 560 31,000  Level Atlanta Center
18:55 34.3908 -81.8739 59° Northeast 482 555 31,000  Level Atlanta Center
18:56 34.4614 -81.7336 59° Northeast 482 555 31,000  Level Atlanta Center
18:57 34.5378 -81.5803 59° Northeast 482 555 31,000  Level Atlanta Center
18:58 34.6036 -81.4419 60° Northeast 476 548 31,000  Level Atlanta Center
18:59 34.6658 -81.3239 57° Northeast 471 542 31,000  Level Atlanta Center
19:00 34.7336 -81.1828 60° Northeast 478 550 31,000  Level Atlanta Center
19:01 34.8069 -81.0258 60° Northeast 478 550 31,000  Level Atlanta Center
19:03 34.9178 -80.8022 59° Northeast 474 545 31,000  Level Washington Center
19:04 34.9844 -80.6619 60° Northeast 475 547 31,000  Level Washington Center
19:05 35.0550 -80.5192 59° Northeast 475 547 31,000  Level Washington Center
19:06 35.1233 -80.3761 60° Northeast 481 554 31,000  Level Washington Center
19:07 35.1964 -80.2231 60° Northeast 472 543 31,000  Level Washington Center
19:08 35.2622 -80.0792 61° Northeast 472 543 31,000  Level Washington Center
19:09 35.3239 -79.9375 62° Northeast 472 543 31,000  Level Washington Center
19:10 35.3711 -79.7847 69° East 467 537 31,000  Level Washington Center
19:11 35.4158 -79.6367 70° East 467 537 31,000  Level Washington Center
19:12 35.4606 -79.4861 70° East 467 537 31,000  Level Washington Center
19:13 35.5092 -79.3328 69° East 462 532 31,000  Level Washington Center
19:14 35.5556 -79.1792 70° East 468 539 31,000  Level Washington Center
19:15 35.5978 -79.0278 71° East 468 539 31,000  Level Washington Center
19:16 35.6436 -78.8764 70° East 468 539 31,000  Level Washington Center
19:17 35.6917 -78.7222 69° East 468 539 31,000  Level Washington Center
19:18 35.7372 -78.5656 70° East 473 544 31,000  Level Washington Center
19:19 35.7786 -78.4083 72° East 478 550 31,000  Level Washington Center
19:20 35.8239 -78.2511 70° East 478 550 31,000  Level Washington Center
19:21 35.8625 -78.1139 71° East 478 550 31,000  Level Washington Center
19:22 35.9053 -77.9614 71° East 478 550 31,000  Level Washington Center
19:23 35.9500 -77.8064 70° East 478 550 31,000  Level Washington Center
19:24 36.0047 -77.6589 65° Northeast 478 550 31,000  Level Washington Center
19:25 36.0842 -77.5247 54° Northeast 471 542 31,000  Level Washington Center
19:26 36.1739 -77.3828 52° Northeast 476 548 31,000  Level Washington Center
19:27 36.2572 -77.2508 52° Northeast 476 548 31,000  Level Washington Center
19:28 36.3297 -77.1286 54° Northeast 482 555 31,000  Level Washington Center
19:29 36.3817 -76.9775 67° East 482 555 31,000  Level Washington Center
19:30 36.3897 -76.8125 86° East 467 537 31,000 -60 Level Washington Center
19:31 36.4058 -76.6450 83° East 472 543 30,900  Descending Washington Center
19:32 36.4864 -76.5194 51° Northeast 442 509 31,000  Climbing Washington Center
19:33 36.6036 -76.4458 27° Northeast 437 503 31,000  Level Washington Center
19:34 36.7189 -76.3692 28° Northeast 453 521 31,000  Level Washington Center
19:35 36.8361 -76.2925 28° Northeast 460 529 31,000  Level Washington Center
19:36 36.9514 -76.2208 26° Northeast 460 529 31,000  Level Washington Center
19:37 37.0789 -76.1358 28° Northeast 460 529 31,000  Level Washington Center
19:38 37.1942 -76.0586 28° Northeast 460 529 31,000  Level Washington Center
19:39 37.3092 -75.9836 27° Northeast 460 529 31,000  Level Washington Center
19:40 37.4197 -75.9056 29° Northeast 455 524 31,000  Level Washington Center
19:41 37.5347 -75.8275 28° Northeast 455 524 31,000  Level Washington Center
19:42 37.6494 -75.7492 28° Northeast 455 524 31,000  Level Washington Center
19:43 37.7622 -75.6681 30° Northeast 455 524 31,000  Level Washington Center
19:44 37.8769 -75.5917 28° Northeast 455 524 31,000  Level Washington Center
19:45 37.9894 -75.5181 27° Northeast 455 524 31,000  Level Washington Center
19:46 38.1000 -75.4414 29° Northeast 455 524 31,000  Level Washington Center
19:47 38.2167 -75.3725 25° Northeast 455 524 31,000  Level Washington Center
19:48 38.3186 -75.3033 28° Northeast 455 524 31,000  Level Washington Center
19:49 38.4311 -75.2286 27° Northeast 455 524 31,000  Level Washington Center
19:50 38.5497 -75.1536 26° Northeast 455 524 31,000  Level Washington Center
19:51 38.6661 -75.0839 25° Northeast 460 529 31,000  Level Washington Center
19:52 38.7825 -75.0031 28° Northeast 460 529 31,000  Level Washington Center
19:53 38.8989 -74.9300 26° Northeast 466 536 31,000  Level Washington Center
19:54 39.0153 -74.8569 26° Northeast 466 536 31,000 -660 Level Washington Center
19:55 39.1292 -74.7728 30° Northeast 461 531 29,700 -1,860 Descending Washington Center
19:56 39.2286 -74.6619 41° Northeast 461 531 27,300 -2,220 Descending Washington Center
19:57 39.2994 -74.5831 41° Northeast 464 534 26,000 -2,100 Descending New York Center
19:58 39.3856 -74.4939 39° Northeast 464 534 23,800 -2,400 Descending New York Center
19:59 39.4850 -74.3806 41° Northeast 443 510 21,300 -2,340 Descending New York Center
20:00 39.5736 -74.2828 40° Northeast 431 496 19,200 -1,200 Descending New York Center
20:01 39.6597 -74.1900 40° Northeast 410 472 19,000 -1,020 Descending New York Center
20:02 39.7475 -74.1106 35° Northeast 390 449 17,200 -1,860 Descending New York Center
20:03 39.8308 -74.0361 34° Northeast 376 433 15,400 -1,860 Descending New York Center
20:04 39.9058 -73.9667 35° Northeast 362 417 13,600 -2,040 Descending New York Center
20:05 39.9869 -73.8944 34° Northeast 362 417 11,400 -1,380 Descending New York Center
20:06 40.0761 -73.8281 30° Northeast 346 398 10,900 -960 Descending New York Center
20:07 40.1503 -73.7797 26° Northeast 308 354 9,500 -1,500 Descending New York Center
20:08 40.2167 -73.7333 28° Northeast 284 327 8,000 -1,320 Descending New York TRACON
20:09 40.3000 -73.7000 17° North 276 318 7,000 -540 Descending New York TRACON
20:10 40.3667 -73.6500 30° Northeast 281 323 7,000  Level New York TRACON
20:11 40.4333 -73.5833 37° Northeast 281 323 7,000 -300 Level New York TRACON
20:12 40.4833 -73.5333 37° Northeast 282 325 6,400 -1,020 Descending New York TRACON
20:13 40.5500 -73.4667 37° Northeast 282 325 5,000 -660 Descending New York TRACON
20:14 40.6167 -73.4167 30° Northeast 276 318 5,100  Climbing New York TRACON
20:15 40.6833 -73.4333 349° North 256 295 5,000 -300 Descending New York TRACON
20:16 40.7500 -73.4500 349° North 220 253 4,600 -540 Descending New York TRACON
20:17 40.8167 -73.4500 360° North 213 245 4,000 -780 Descending New York TRACON
20:18 40.8333 -73.5000 294° West 209 241 3,100 -540 Descending New York TRACON
20:19 40.8167 -73.5833 255° West 202 232 3,000 -60 Descending New York TRACON
20:20 40.8000 -73.6500 252° West 194 223 3,000 -180 Level New York TRACON
20:21 40.7667 -73.6833 217° Southwest 185 213 2,700 -600 Descending New York TRACON
20:22 40.7167 -73.7167 207° Southwest 177 204 1,800 -900 Descending New York TRACON
20:23 40.6833 -73.7333 201° Southwest 136 157 1,000 -840 Descending New York TRACON
20:25 40.6333 -73.7667 208° Southwest  Level FlightAware Approximate
20:32 40.6398 -73.7789 208° Southwest  Level Estimated